| time (UTC) | temp F | wind direction | speed knots | gust knots | rain 1hr in | rain 24hr in | rain mn in | humidity % | barometer mb |
| 20260508121539 | 43 | 284 | 3.5 | 8.7 | 0.00 | 0.00 | 0.00 | 77 | 1005.3 |
| 20260508120040 | 42 | 238 | 4.3 | 7.8 | 0.00 | 0.00 | 0.00 | 78 | 1005.3 |
| 20260508114542 | 41 | 286 | 0.9 | 7.0 | 0.00 | 0.00 | 0.00 | 79 | 1005.2 |
| 20260508113042 | 40 | 286 | 3.5 | 7.8 | 0.00 | 0.00 | 0.00 | 81 | 1005.2 |
| 20260508111541 | 38 | 294 | 1.7 | 3.5 | 0.00 | 0.00 | 0.00 | 83 | 1005.0 |
| 20260508110037 | 38 | 285 | 2.6 | 5.2 | 0.00 | 0.00 | 0.00 | 82 | 1004.9 |
| 20260508104536 | 37 | 0 | 0.9 | 3.5 | 0.00 | 0.00 | 0.00 | 83 | 1004.8 |
| 20260508103038 | 37 | 232 | 0.9 | 2.6 | 0.00 | 0.00 | 0.00 | 83 | 1004.7 |
| 20260508101547 | 36 | 296 | 0.0 | 1.7 | 0.00 | 0.00 | 0.00 | 87 | 1004.6 |
| 20260508100042 | 34 | 296 | 0.0 | 2.6 | 0.00 | 0.00 | 0.00 | 88 | 1004.4 |
| 20260508094537 | 34 | 0 | 0.0 | 2.6 | 0.00 | 0.00 | 0.00 | 87 | 1004.3 |
| 20260508093037 | 33 | 0 | 0.0 | 1.7 | 0.00 | 0.00 | 0.00 | 87 | 1004.1 |
| 20260508091603 | 33 | 298 | 0.9 | 3.5 | 0.00 | 0.00 | 0.00 | 86 | 1004.0 |
| 20260508090052 | 33 | 305 | 0.0 | 1.7 | 0.00 | 0.00 | 0.00 | 86 | 1004.0 |
| 20260508084542 | 34 | 0 | 0.0 | 3.5 | 0.00 | 0.00 | 0.00 | 84 | 1004.0 |
| 20260508083042 | 34 | 309 | 0.9 | 3.5 | 0.00 | 0.00 | 0.00 | 83 | 1003.8 |
| 20260508081546 | 35 | 309 | 0.9 | 3.5 | 0.00 | 0.00 | 0.00 | 84 | 1003.8 |
| 20260508080039 | 35 | 336 | 0.9 | 7.0 | 0.00 | 0.00 | 0.00 | 82 | 1003.6 |
| 20260508074536 | 34 | 302 | 0.9 | 2.6 | 0.00 | 0.01 | 0.00 | 84 | 1003.5 |
| 20260508073037 | 34 | 0 | 0.0 | 0.9 | 0.00 | 0.01 | 0.00 | 80 | 1003.5 |
| 20260508071539 | 36 | 302 | 0.9 | 5.2 | 0.00 | 0.01 | 0.00 | 76 | 1003.4 |
| 20260508070039 | 37 | 295 | 1.7 | 5.2 | 0.00 | 0.01 | 0.00 | 75 | 1003.5 |
| 20260508064538 | 39 | 304 | 3.5 | 7.0 | 0.00 | 0.08 | 0.00 | 70 | 1003.4 |
| 20260508063105 | 39 | 300 | 2.6 | 5.2 | 0.00 | 0.08 | 0.00 | 69 | 1003.7 |
| 20260508061540 | 40 | 262 | 4.3 | 9.6 | 0.00 | 0.08 | 0.00 | 69 | 1003.8 |
| 20260508060040 | 40 | 290 | 4.3 | 10.4 | 0.00 | 0.08 | 0.00 | 68 | 1003.6 |
| 20260508054542 | 40 | 305 | 5.2 | 7.8 | 0.00 | 0.16 | 0.00 | 68 | 1003.9 |
| 20260508053050 | 39 | 307 | 1.7 | 4.3 | 0.00 | 0.16 | 0.00 | 70 | 1004.3 |
| 20260508051600 | 40 | 294 | 2.6 | 7.8 | 0.00 | 0.16 | 0.00 | 66 | 1004.1 |
| 20260508050037 | 39 | 286 | 3.5 | 7.0 | 0.00 | 0.16 | 0.00 | 71 | 1004.5 |
| 20260508044542 | 37 | 289 | 0.9 | 3.5 | 0.00 | 0.17 | 0.00 | 75 | 1004.6 |
| 20260508043037 | 37 | 273 | 0.9 | 3.5 | 0.00 | 0.17 | 0.00 | 75 | 1004.7 |
| 20260508041536 | 40 | 286 | 1.7 | 6.1 | 0.00 | 0.17 | 0.00 | 67 | 1004.8 |
| 20260508040043 | 41 | 289 | 2.6 | 8.7 | 0.00 | 0.17 | 0.00 | 64 | 1005.0 |
| 20260508034543 | 40 | 272 | 2.6 | 6.1 | 0.00 | 0.22 | 0.17 | 68 | 1004.9 |
| 20260508033044 | 39 | 240 | 0.0 | 4.3 | 0.00 | 0.22 | 0.17 | 68 | 1004.9 |
| 20260508031539 | 42 | 296 | 2.6 | 7.0 | 0.00 | 0.22 | 0.17 | 63 | 1004.8 |
| 20260508030047 | 43 | 298 | 4.3 | 7.8 | 0.00 | 0.22 | 0.17 | 60 | 1004.6 |
| 20260508024536 | 42 | 327 | 1.7 | 7.0 | 0.00 | 0.24 | 0.17 | 65 | 1004.6 |
| 20260508023042 | 44 | 289 | 1.7 | 7.0 | 0.00 | 0.24 | 0.17 | 62 | 1004.7 |
| 20260508021549 | 44 | 313 | 4.3 | 10.4 | 0.00 | 0.24 | 0.17 | 58 | 1004.8 |
| 20260508020037 | 44 | 304 | 3.5 | 7.0 | 0.00 | 0.24 | 0.17 | 58 | 1004.9 |
| 20260508014547 | 45 | 299 | 4.3 | 7.8 | 0.00 | 0.35 | 0.17 | 57 | 1005.1 |
| 20260508013035 | 45 | 317 | 1.7 | 7.0 | 0.00 | 0.35 | 0.17 | 60 | 1005.0 |
| 20260508011547 | 46 | 288 | 2.6 | 8.7 | 0.00 | 0.35 | 0.17 | 56 | 1004.8 |
| 20260508010056 | 47 | 298 | 3.5 | 7.0 | 0.00 | 0.35 | 0.17 | 56 | 1004.8 |
| 20260508004537 | 47 | 323 | 1.7 | 7.8 | 0.00 | 0.43 | 0.17 | 56 | 1004.8 |
| 20260508003043 | 48 | 321 | 3.5 | 9.6 | 0.00 | 0.43 | 0.17 | 55 | 1004.7 |
| 20260508001544 | 49 | 310 | 7.0 | 15.6 | 0.00 | 0.43 | 0.17 | 53 | 1004.5 |
| 20260508000045 | 49 | 311 | 3.5 | 14.8 | 0.00 | 0.43 | 0.17 | 56 | 1004.3 |
| 20260507234538 | 50 | 292 | 6.1 | 15.6 | 0.00 | 0.60 | 0.17 | 57 | 1004.0 |
| 20260507233040 | 51 | 336 | 7.0 | 14.8 | 0.00 | 0.60 | 0.17 | 57 | 1003.5 |
| 20260507231536 | 52 | 335 | 3.5 | 13.0 | 0.00 | 0.60 | 0.17 | 60 | 1003.1 |
| 20260507230054 | 53 | 334 | 5.2 | 15.6 | 0.00 | 0.60 | 0.17 | 63 | 1002.9 |
| 20260507224543 | 53 | 9 | 4.3 | 12.2 | 0.00 | 0.74 | 0.17 | 66 | 1002.6 |
| 20260507223124 | 53 | 309 | 4.3 | 9.6 | 0.00 | 0.74 | 0.17 | 71 | 1002.5 |
| 20260507221536 | 54 | 24 | 3.5 | 9.6 | 0.00 | 0.74 | 0.17 | 67 | 1002.4 |
| 20260507220036 | 55 | 0 | 1.7 | 5.2 | 0.00 | 0.74 | 0.17 | 66 | 1002.2 |
| 20260507214539 | 54 | 22 | 1.7 | 4.3 | 0.00 | 0.81 | 0.17 | 67 | 1002.2 |
| 20260507213035 | 55 | 31 | 2.6 | 8.7 | 0.00 | 0.81 | 0.17 | 65 | 1002.2 |
| 20260507211539 | 54 | 317 | 1.7 | 6.1 | 0.00 | 0.81 | 0.17 | 70 | 1002.2 |
| 20260507210042 | 53 | 325 | 1.7 | 8.7 | 0.00 | 0.81 | 0.17 | 72 | 1002.2 |
| 20260507204540 | 54 | 296 | 3.5 | 11.3 | 0.00 | 0.82 | 0.17 | 67 | 1001.9 |
| 20260507203040 | 56 | 331 | 7.8 | 16.5 | 0.00 | 0.82 | 0.17 | 61 | 1001.8 |
| 20260507201540 | 59 | 331 | 5.2 | 13.0 | 0.00 | 0.82 | 0.17 | 53 | 1001.4 |
| 20260507200053 | 58 | 263 | 6.1 | 14.8 | 0.00 | 0.82 | 0.17 | 54 | 1001.3 |
| 20260507194538 | 59 | 275 | 3.5 | 9.6 | 0.00 | 0.82 | 0.17 | 54 | 1001.4 |
| 20260507193045 | 56 | 241 | 6.1 | 11.3 | 0.00 | 0.82 | 0.17 | 56 | 1001.7 |
| 20260507191536 | 56 | 336 | 5.2 | 14.8 | 0.00 | 0.82 | 0.17 | 56 | 1001.7 |
| 20260507190049 | 57 | 260 | 3.5 | 9.6 | 0.00 | 0.82 | 0.17 | 56 | 1001.6 |
| 20260507184540 | 57 | 275 | 4.3 | 10.4 | 0.00 | 0.82 | 0.17 | 56 | 1001.8 |
| 20260507183040 | 58 | 246 | 3.5 | 7.8 | 0.00 | 0.82 | 0.17 | 55 | 1001.8 |
| 20260507181537 | 57 | 252 | 3.5 | 8.7 | 0.00 | 0.82 | 0.17 | 57 | 1002.0 |
| 20260507180036 | 57 | 267 | 2.6 | 6.1 | 0.00 | 0.82 | 0.17 | 56 | 1002.0 |
| 20260507174547 | 58 | 218 | 3.5 | 8.7 | 0.00 | 0.82 | 0.17 | 55 | 1002.1 |
| 20260507173041 | 59 | 190 | 3.5 | 13.0 | 0.00 | 0.82 | 0.17 | 57 | 1002.1 |
| 20260507171539 | 59 | 196 | 3.5 | 8.7 | 0.00 | 0.82 | 0.17 | 51 | 1002.1 |
| 20260507170041 | 59 | 323 | 1.7 | 10.4 | 0.00 | 0.82 | 0.17 | 59 | 1002.3 |
| 20260507164543 | 57 | 217 | 2.6 | 8.7 | 0.00 | 0.82 | 0.17 | 57 | 1002.5 |
| 20260507163036 | 58 | 300 | 3.5 | 7.8 | 0.00 | 0.82 | 0.17 | 57 | 1002.7 |
| 20260507161551 | 57 | 0 | 3.5 | 10.4 | 0.00 | 0.82 | 0.17 | 60 | 1002.9 |
| 20260507160040 | 56 | 285 | 0.9 | 7.0 | 0.00 | 0.82 | 0.17 | 62 | 1002.8 |
| 20260507154542 | 55 | 0 | 0.9 | 7.8 | 0.00 | 0.82 | 0.17 | 61 | 1003.0 |
| 20260507153041 | 55 | 277 | 1.7 | 9.6 | 0.00 | 0.82 | 0.17 | 68 | 1003.3 |
| 20260507151537 | 55 | 289 | 4.3 | 9.6 | 0.00 | 0.82 | 0.17 | 66 | 1003.5 |
| 20260507150048 | 54 | 287 | 2.6 | 8.7 | 0.00 | 0.82 | 0.17 | 69 | 1003.8 |
| 20260507144539 | 54 | 269 | 0.9 | 7.0 | 0.00 | 0.82 | 0.17 | 72 | 1003.8 |
| 20260507143035 | 51 | 332 | 1.7 | 7.0 | 0.00 | 0.82 | 0.17 | 72 | 1003.9 |
| 20260507141543 | 53 | 10 | 0.0 | 5.2 | 0.00 | 0.82 | 0.17 | 77 | 1003.9 |
| 20260507140040 | 50 | 249 | 2.6 | 7.8 | 0.00 | 0.82 | 0.17 | 79 | 1004.1 |
| 20260507134536 | 50 | 311 | 2.6 | 6.1 | 0.00 | 0.82 | 0.17 | 81 | 1004.0 |
| 20260507133036 | 50 | 352 | 2.6 | 6.1 | 0.00 | 0.82 | 0.17 | 81 | 1004.3 |
| 20260507131536 | 49 | 292 | 3.5 | 8.7 | 0.00 | 0.82 | 0.17 | 81 | 1004.2 |
| 20260507130054 | 49 | 317 | 2.6 | 7.8 | 0.00 | 0.82 | 0.17 | 82 | 1004.3 |
| 20260507124547 | 47 | 315 | 0.9 | 6.1 | 0.00 | 0.82 | 0.17 | 86 | 1004.2 |
| 20260507123041 | 47 | 291 | 4.3 | 7.8 | 0.00 | 0.82 | 0.17 | 86 | 1004.4 |